Date,TemperatureHighF,TemperatureAvgF,TemperatureLowF,DewpointHighF,DewpointAvgF,DewpointLowF,HumidityHigh,HumidityAvg,HumidityLow,PressureMaxIn,PressureMinIn,WindSpeedMaxMPH,WindSpeedAvgMPH,GustSpeedMaxMPH,PrecipitationSumIn
2013-1-1,23.0,8.5,0.7,6.1,-0.0,-4.5,81,69,43,30.28,30.15,7,2,7,0.00
2013-1-2,27.2,17.7,10.3,14.7,9.8,3.1,84,71,50,30.16,30.07,10,3,10,0.00
2013-1-3,25.9,19.4,8.6,19.4,14.4,3.8,84,81,73,30.26,30.07,12,3,12,0.00
2013-1-4,37.3,19.5,7.7,22.1,12.4,3.3,87,75,50,30.21,30.09,15,6,15,0.00
2013-1-5,40.7,25.5,8.6,30.3,20.3,4.7,92,81,61,30.23,29.90,12,3,12,0.01
2013-1-6,36.7,24.0,12.4,25.8,17.8,8.7,89,77,58,30.31,29.90,10,3,10,0.00
2013-1-7,41.0,26.6,11.3,25.7,18.8,7.1,86,73,52,30.27,30.05,19,5,19,0.00
2013-1-8,40.7,31.3,18.5,30.6,25.3,15.5,92,79,66,30.13,29.92,13,3,19,0.00
2013-1-9,43.9,33.7,23.4,30.9,24.3,16.0,85,69,49,30.48,29.92,19,6,19,0.00
2013-1-10,52.0,31.2,19.8,36.2,25.1,15.4,93,79,51,30.50,29.89,10,2,10,0.30
2013-1-11,45.2,38.4,34.0,43.0,36.8,32.0,96,94,90,29.91,29.62,10,3,10,0.06
2013-1-12,47.9,32.4,20.5,42.3,25.3,12.8,93,75,62,30.06,29.61,23,7,23,0.00
2013-1-13,21.4,14.8,11.2,14.0,7.0,3.6,76,71,57,30.23,29.96,8,4,10,0.00
2013-1-14,31.7,15.0,6.1,15.1,6.5,1.2,83,70,47,30.45,30.22,8,2,8,0.00
2013-1-15,37.3,20.8,9.7,17.1,11.5,5.6,86,69,41,30.42,30.06,12,3,12,0.00
2013-1-16,33.8,25.9,17.8,29.2,19.0,10.0,85,75,61,30.12,29.78,16,5,16,0.00
2013-1-17,29.3,19.2,13.3,12.8,6.4,1.4,77,58,40,30.41,30.10,10,2,10,0.00
2013-1-18,48.8,30.6,12.8,31.4,21.9,6.6,80,71,50,30.42,29.84,19,5,19,0.00
2013-1-19,48.1,35.3,11.9,34.6,25.7,0.5,84,69,36,30.02,29.69,21,6,23,0.00
2013-1-20,19.3,9.7,4.9,0.7,-2.2,-4.2,70,59,41,30.35,29.99,17,3,17,0.00
2013-1-21,9.2,1.2,-5.2,2.8,-8.2,-13.9,80,65,50,30.30,30.14,12,4,12,0.00
2013-1-22,10.1,0.1,-8.1,-4.7,-9.2,-13.9,78,65,48,30.37,30.28,10,2,10,0.00
2013-1-23,18.0,10.0,1.6,12.5,2.8,-7.1,84,72,62,30.46,30.08,15,4,15,0.00
2013-1-24,17.5,7.0,-2.3,7.0,-2.1,-8.8,74,66,51,30.67,30.32,8,2,8,0.00
2013-1-25,23.9,17.9,12.1,15.0,10.8,5.2,85,74,63,30.36,29.94,12,4,12,0.00
2013-1-26,43.6,18.1,4.9,19.7,7.6,0.0,81,65,32,30.41,30.22,7,2,8,0.00
2013-1-27,31.9,27.2,21.6,29.9,21.4,12.4,92,79,67,30.33,29.87,13,4,13,0.00
2013-1-28,54.4,35.2,31.0,42.0,31.1,27.4,94,85,58,29.99,29.79,7,1,7,0.16
2013-1-29,48.6,39.2,33.5,47.5,37.7,31.5,96,94,89,29.82,29.56,11,3,11,0.80
2013-1-30,33.7,25.6,13.7,32.1,23.3,8.6,95,91,80,29.65,29.42,14,5,14,0.06
2013-1-31,14.0,8.2,-0.5,8.4,1.7,-6.5,86,75,63,30.16,29.63,14,4,14,0.00
2013-2-1,11.2,0.6,-8.3,0.3,-7.0,-13.4,84,71,49,30.32,30.11,11,3,11,0.00
2013-2-2,25.9,8.8,3.2,11.9,1.4,-3.2,84,72,49,30.14,30.01,6,1,6,0.00
2013-2-3,24.5,12.8,2.5,9.5,4.8,-2.9,86,71,48,30.06,29.94,10,2,10,0.00
2013-2-4,35.3,16.1,7.9,15.3,7.1,0.2,84,69,41,30.03,29.93,8,2,8,0.01
2013-2-5,28.4,19.0,5.2,22.9,14.1,-1.1,88,81,75,30.11,29.78,12,4,12,0.00
2013-2-6,32.8,21.6,6.5,27.1,15.8,2.6,89,79,60,30.23,30.07,13,2,13,0.00
2013-2-7,35.3,30.3,22.0,32.3,27.9,19.4,93,90,85,30.13,29.98,14,4,14,0.01
2013-2-8,40.9,23.7,10.6,23.4,15.9,5.9,90,73,48,30.41,30.12,14,3,14,0.00
2013-2-9,28.4,24.9,14.4,24.5,21.1,5.9,91,86,79,30.38,30.07,11,4,11,0.00
2013-2-10,41.0,32.7,22.0,39.7,30.5,19.4,96,91,87,30.10,29.40,19,5,19,0.07
2013-2-11,37.8,29.5,24.1,32.8,24.5,18.2,89,81,74,30.00,29.39,23,9,23,0.00
2013-2-12,37.1,24.6,19.8,23.5,17.6,14.3,88,75,56,30.11,29.87,12,4,12,0.00
2013-2-13,47.0,30.2,18.7,29.7,23.6,15.5,92,78,50,29.87,29.69,9,2,9,0.00
2013-2-14,34.2,31.7,24.8,32.1,25.8,17.2,93,79,62,30.03,29.60,14,4,14,0.06
2013-2-15,31.5,18.9,9.7,17.6,7.2,1.5,74,61,37,30.24,30.03,13,3,13,0.00
2013-2-16,33.8,13.4,4.0,10.4,0.8,-5.1,74,58,32,30.21,30.15,8,2,11,0.00
2013-2-17,38.9,16.5,-0.4,18.0,5.7,-6.5,79,64,35,30.20,29.90,15,3,15,0.00
2013-2-18,54.0,33.5,21.8,35.3,26.2,17.2,92,75,48,29.91,29.53,13,4,13,0.06
2013-2-19,21.6,12.3,6.3,17.5,4.5,-3.7,87,71,54,30.19,29.59,15,6,15,0.00
2013-2-20,31.3,14.3,4.1,11.2,3.5,-3.9,75,63,41,30.38,30.19,8,3,8,0.00
2013-2-21,24.3,17.8,8.8,21.4,12.7,3.1,91,80,69,30.45,30.07,15,4,15,0.00
2013-2-22,39.6,26.9,22.0,32.3,22.8,19.4,91,85,70,30.07,29.81,13,2,13,0.03
2013-2-23,36.2,25.5,19.4,23.3,19.0,14.7,86,76,58,29.93,29.83,10,4,12,0.01
2013-2-24,52.9,28.3,14.2,32.9,18.8,10.8,90,70,38,30.14,29.93,6,1,6,0.08
2013-2-25,53.5,31.1,20.7,32.9,22.2,14.6,83,71,43,30.17,30.05,7,1,7,0.00
2013-2-26,36.4,29.6,25.0,27.0,24.9,21.4,92,83,67,30.04,29.69,29,9,29,0.01
2013-2-27,34.2,30.3,27.5,30.0,27.2,24.5,93,88,81,29.83,29.67,15,6,15,0.00
2013-2-28,35.8,30.8,24.3,28.4,24.6,17.8,91,78,64,30.14,29.82,14,5,14,0.02
2013-3-1,41.9,25.1,14.6,25.2,16.1,9.0,84,69,46,30.26,30.14,14,4,14,0.00
2013-3-2,45.4,21.1,11.2,19.5,8.9,2.4,81,62,32,30.27,30.15,10,2,10,0.00
2013-3-3,50.8,22.4,7.6,24.0,9.0,0.7,75,58,30,30.16,30.07,6,1,6,0.02
2013-3-4,24.7,15.4,12.6,15.2,6.8,2.8,73,68,63,30.11,30.07,3,0,3,0.00
2013-4-8,72.0,55.0,40.1,51.4,43.3,36.5,87,67,45,30.03,29.79,9,4,9,0.00
2013-4-9,40.0,37.3,33.1,36.7,34.7,30.3,94,91,86,30.06,29.89,19,5,19,1.10
2013-4-10,34.6,32.7,31.0,32.1,30.7,29.0,93,92,88,30.15,29.89,16,3,16,1.35
2013-4-11,38.9,35.3,33.5,36.8,33.4,31.3,94,93,92,29.93,29.59,23,4,23,0.61
2013-4-12,40.9,34.8,32.8,36.5,31.6,27.9,95,88,79,29.79,29.55,10,3,10,0.09
2013-4-13,36.9,33.7,30.2,29.3,26.5,22.9,90,75,64,29.99,29.76,14,4,14,0.01
2013-4-14,56.0,37.9,29.2,42.2,32.3,22.2,89,81,56,29.99,29.58,12,1,12,0.07
2013-4-15,58.5,45.5,39.1,46.8,38.6,30.6,95,78,44,29.97,29.60,23,5,23,0.39
2013-4-16,67.0,44.0,32.0,37.4,30.4,27.1,82,62,30,30.29,29.96,11,3,11,0.00
2013-4-17,41.4,38.6,35.3,39.0,34.1,28.3,93,84,66,30.32,29.79,15,3,15,0.75
2013-4-18,50.8,42.9,38.5,49.3,40.8,34.9,95,92,83,29.85,29.05,23,4,23,0.38
2013-5-14,97.6,86.5,75.6,59.9,53.5,48.7,55,34,22,29.88,29.67,17,5,17,0.00
2013-5-15,83.2,70.7,59.0,59.3,43.5,35.8,60,39,22,29.98,29.70,13,3,13,0.00
2013-5-16,99.2,68.6,53.5,55.5,45.7,37.1,74,47,19,30.10,29.97,12,1,12,0.00
2013-5-17,66.1,55.0,47.9,55.1,45.1,34.9,90,71,43,30.23,30.07,10,2,10,0.79
2013-5-18,92.2,67.7,49.3,69.3,57.1,45.5,89,71,44,30.17,30.03,10,2,10,0.00
2013-5-19,93.1,73.3,60.8,66.9,60.9,55.7,87,67,40,30.05,29.77,21,4,21,0.00
2013-5-20,88.0,72.7,60.3,63.5,60.0,55.7,93,67,39,29.92,29.72,28,4,28,0.38
2013-5-21,78.5,69.3,60.1,61.7,57.6,52.6,82,67,50,29.81,29.71,18,4,18,0.00
2013-5-22,72.4,61.0,53.1,64.4,56.8,51.1,93,86,75,29.91,29.73,15,2,15,0.36
2013-5-23,77.8,56.8,45.4,51.0,44.4,35.6,94,68,26,30.38,29.91,14,5,14,0.18
2013-5-24,82.1,55.3,37.6,50.1,39.9,34.0,90,61,28,30.53,30.38,8,1,8,0.00
2013-5-25,75.8,55.9,47.0,47.5,38.9,34.4,74,54,33,30.45,30.36,9,2,9,0.00
2013-5-26,73.6,55.4,42.5,50.0,42.5,33.0,78,63,37,30.38,30.24,12,2,12,0.06
2013-5-27,58.1,53.2,50.4,53.1,47.8,41.5,91,82,67,30.25,29.99,10,1,10,0.04
2013-5-28,81.7,59.5,50.4,67.6,55.6,47.8,95,87,61,30.00,29.82,7,2,7,0.26
2013-5-29,96.8,71.1,59.8,71.3,62.3,57.6,94,77,43,30.00,29.88,23,3,23,0.36
2013-5-30,89.8,72.1,60.8,72.3,64.5,58.7,95,78,51,29.98,29.79,17,4,17,0.13
2013-5-31,87.8,70.3,62.6,66.6,61.2,58.6,88,74,48,29.87,29.77,14,5,14,0.00
2013-6-1,83.0,68.6,56.9,68.2,58.9,51.6,93,73,43,29.81,29.72,16,3,16,0.40
2013-6-2,79.2,56.8,47.2,57.3,44.2,39.1,91,65,30,30.11,29.81,14,4,14,0.03
2013-6-3,81.5,59.2,43.4,49.5,43.4,38.4,91,60,29,30.18,30.09,8,1,8,0.00
2013-6-4,71.3,59.7,50.2,55.6,49.5,42.7,87,70,48,30.25,30.15,10,2,10,0.17
2013-6-5,67.3,55.2,49.7,58.9,51.1,46.1,90,86,72,30.22,30.04,8,1,8,0.23
2013-6-6,67.5,56.6,50.9,58.4,51.7,48.1,93,84,72,30.07,30.02,8,2,8,0.05
2013-6-7,87.1,63.1,50.9,60.8,51.2,46.3,90,68,31,30.09,30.01,7,2,7,0.00
2013-6-8,80.8,65.7,54.0,55.9,51.2,47.4,83,62,35,30.09,30.01,6,1,7,0.00
2013-6-9,82.1,67.1,55.4,63.3,55.6,46.5,87,68,44,30.10,29.90,17,2,17,0.02
2013-6-10,92.5,70.8,58.5,67.6,61.0,55.4,93,73,42,29.96,29.87,7,2,7,0.00
2013-6-11,87.8,71.7,58.7,67.9,62.0,55.8,93,73,47,30.01,29.90,9,2,9,0.00
2013-6-12,82.3,68.2,58.1,70.8,63.7,56.3,95,86,67,30.02,29.74,30,2,30,1.59
2013-6-13,90.7,69.8,56.9,61.7,56.8,52.1,95,68,34,30.15,29.87,12,3,12,0.00
2013-6-14,93.6,69.6,54.0,63.5,55.9,50.0,91,65,32,30.23,30.07,9,2,9,0.00
2013-6-15,91.8,69.7,56.9,69.9,61.3,51.5,92,76,47,30.14,29.91,14,3,14,0.34
2013-6-16,88.2,73.5,62.3,64.4,56.5,48.0,91,60,29,30.00,29.94,10,2,10,0.00
2013-6-17,88.2,72.8,61.4,62.7,56.5,51.6,78,59,30,30.07,29.96,13,3,13,0.00
2013-6-18,88.2,67.7,55.1,59.9,52.0,43.3,85,61,32,30.17,30.06,11,3,11,0.00
2013-6-19,95.6,68.8,48.2,58.1,49.5,42.3,82,54,26,30.23,30.15,8,2,8,0.00
2013-6-20,99.9,76.6,58.7,62.6,55.3,46.5,68,51,26,30.23,30.13,14,3,14,0.00
2013-6-21,84.6,71.5,63.9,70.2,63.5,58.3,93,76,59,30.18,29.96,16,3,16,1.04
2013-6-22,92.7,72.2,65.9,74.4,66.4,63.5,94,83,53,30.20,29.96,15,3,15,3.03
2013-6-23,93.6,74.0,63.2,73.8,66.8,61.3,94,79,52,30.12,29.94,12,4,12,0.16
2013-6-24,85.5,73.0,67.3,69.2,65.9,63.9,91,79,55,30.10,29.94,13,3,14,0.00
2013-6-25,92.7,72.9,64.6,75.3,67.5,62.9,94,84,55,30.01,29.88,9,2,9,0.57
2013-6-26,92.9,76.5,65.5,72.7,68.4,63.4,94,78,51,29.89,29.81,17,2,17,0.74
2013-6-27,92.3,77.5,68.8,78.2,66.5,57.3,94,71,42,29.90,29.81,12,2,12,0.11
2013-6-28,76.0,68.9,64.1,66.6,60.4,56.0,90,75,60,29.84,29.75,9,3,12,0.02
2013-6-29,81.0,66.7,62.3,64.2,60.5,56.5,93,81,55,29.95,29.74,16,4,16,0.12
2013-6-30,88.6,69.6,56.3,61.3,53.4,48.8,86,60,30,30.14,29.94,11,4,11,0.00
2013-7-1,94.9,71.8,56.9,60.0,53.9,49.7,80,57,29,30.22,30.14,13,3,13,0.00
2013-7-2,92.7,70.2,56.7,58.3,51.5,43.9,84,56,25,30.21,30.15,13,2,13,0.00
2013-7-3,82.3,65.3,55.3,62.8,55.0,44.8,82,70,52,30.18,30.10,5,1,5,0.00
2013-7-4,94.7,73.7,58.9,62.5,58.5,55.1,91,64,32,30.16,30.09,9,2,9,0.00
2013-7-5,93.1,76.1,62.5,66.0,61.7,57.5,87,64,36,30.14,30.08,11,3,11,0.00
2013-7-6,99.4,77.8,63.7,68.1,62.8,57.4,82,63,35,30.12,30.04,10,2,10,0.00
2013-7-7,97.2,79.2,67.3,71.8,67.2,60.5,87,69,43,30.07,29.98,10,3,10,0.00
2013-7-8,95.9,77.7,70.4,76.2,70.7,67.6,92,80,52,30.07,29.97,14,3,14,1.00
2013-7-9,90.7,76.6,68.4,77.9,71.1,66.0,93,84,60,30.09,29.90,13,3,13,0.17
2013-7-10,87.1,73.6,62.3,70.1,60.6,54.0,87,66,37,30.10,29.92,12,3,12,0.00
2013-7-11,101.0,73.9,57.4,65.3,57.8,52.9,92,62,27,30.20,30.10,6,1,6,0.00
2013-7-12,97.6,74.7,58.0,61.9,55.5,51.1,83,55,26,30.24,30.15,10,2,10,0.00
2013-7-13,99.2,76.2,62.5,68.1,59.4,51.7,76,59,30,30.25,30.16,8,3,8,0.00
2013-7-14,100.6,78.8,60.5,70.4,63.4,55.0,86,63,35,30.31,30.23,10,2,10,0.00
2013-7-15,104.4,82.4,67.0,76.0,69.1,62.3,87,67,39,30.36,30.28,8,1,8,0.00
2013-7-16,99.4,83.5,73.3,75.5,72.5,69.7,89,71,46,30.36,30.31,9,2,9,0.00
2013-7-17,99.4,83.4,74.0,78.8,73.2,69.8,91,73,46,30.37,30.24,13,2,13,0.00
2013-7-18,96.3,83.5,73.4,75.1,71.9,69.4,92,70,46,30.25,29.97,13,4,13,0.00
2013-7-19,94.0,82.0,71.1,73.6,68.0,60.1,79,64,39,29.97,29.84,16,5,16,0.00
2013-7-20,92.7,75.2,64.1,67.8,61.1,56.3,81,63,40,30.06,29.92,8,1,10,0.00
2013-7-21,91.3,67.1,59.8,68.6,59.2,53.6,91,77,47,30.06,29.97,12,2,12,0.35
2013-7-22,92.9,73.4,60.8,71.3,64.8,58.5,93,77,48,29.98,29.69,22,3,22,0.01
2013-7-23,87.8,70.7,57.2,64.6,56.6,50.0,91,64,34,30.07,29.82,11,3,11,0.01
2013-7-24,88.4,66.8,52.6,60.0,51.9,48.3,90,63,33,30.15,30.07,6,1,6,0.00
2013-7-25,83.9,66.8,54.5,64.2,57.5,48.5,88,73,47,30.14,30.04,10,3,10,0.01
2013-7-26,80.6,67.6,60.3,66.8,59.2,52.6,93,76,42,30.04,29.92,20,3,20,0.38
2013-7-27,62.8,54.2,49.0,52.6,46.7,42.9,89,76,58,30.04,29.93,10,3,10,0.05
2013-7-28,70.6,57.9,49.7,52.9,49.7,45.4,90,75,52,30.09,29.91,13,3,13,0.01
2013-7-29,89.1,66.3,50.8,63.3,54.6,47.2,92,69,39,30.23,30.09,7,1,7,0.00
2013-7-30,80.3,66.4,55.6,63.5,58.0,52.4,90,75,49,30.24,30.16,9,2,9,0.00
2013-7-31,83.5,68.7,61.7,67.5,60.8,55.5,91,77,52,30.17,30.04,14,2,14,0.00
2013-8-1,86.8,68.6,60.1,58.5,55.5,51.3,92,66,34,30.08,29.97,9,2,9,0.00
2013-8-2,83.3,69.7,61.0,64.3,56.9,52.1,91,66,40,30.05,29.90,8,2,8,0.03
2013-8-3,88.4,67.5,53.5,57.1,51.8,47.9,86,60,28,30.20,30.05,8,2,8,0.00
2013-8-4,85.9,65.9,52.7,59.1,52.6,47.5,87,65,32,30.29,30.17,6,2,6,0.00
2013-8-5,78.8,64.7,56.9,62.8,58.2,52.4,91,80,57,30.17,29.93,10,2,10,0.04
2013-8-6,88.9,74.6,63.9,69.3,65.4,61.3,92,75,47,29.96,29.85,10,3,10,0.00
2013-8-7,88.9,72.4,64.1,68.1,61.5,55.5,90,70,40,30.06,29.83,9,2,9,0.00
2013-8-8,96.1,71.0,56.5,65.3,57.5,51.6,85,65,34,30.12,30.05,9,2,9,0.00
2013-8-9,84.4,70.2,60.3,62.8,56.4,51.2,84,63,38,30.14,30.04,9,2,9,0.00
2013-8-10,85.0,66.2,54.4,61.2,53.2,48.5,85,65,36,30.23,30.14,6,1,6,0.00
2013-8-11,73.3,63.6,55.6,65.7,59.2,50.2,93,86,72,30.20,30.10,6,1,6,0.25
2013-8-12,87.7,70.7,62.3,67.5,61.1,54.9,94,74,41,30.11,29.99,9,2,9,0.10
2013-8-13,80.1,59.9,50.0,56.4,49.3,44.9,86,70,38,30.23,30.07,9,2,9,0.00
2013-8-14,84.4,61.7,46.4,57.4,49.7,43.1,90,68,35,30.28,30.18,7,1,7,0.00
2013-8-15,88.2,66.5,56.9,59.7,54.8,51.2,88,69,31,30.22,30.16,8,1,8,0.00
2013-8-16,96.8,70.5,54.2,62.7,55.3,49.3,88,63,26,30.26,30.19,5,1,5,0.00
2013-8-17,98.6,72.3,55.6,63.6,55.8,51.1,90,61,26,30.31,30.23,8,1,8,0.00
2013-8-18,96.8,72.0,55.8,60.7,55.3,50.5,88,60,27,30.28,30.16,9,1,9,0.00
2013-8-19,85.5,70.0,58.3,62.5,58.2,53.3,90,68,41,30.18,30.09,12,2,12,0.00
2013-8-20,94.9,75.8,61.9,66.6,62.5,56.9,89,66,38,30.15,30.06,13,3,13,0.00
2013-8-21,95.6,79.4,70.2,71.0,67.2,62.6,85,68,45,30.09,29.99,14,4,14,0.00
2013-8-22,96.5,74.1,64.1,76.1,66.4,57.8,93,79,41,30.21,30.06,10,2,10,0.45
2013-8-23,100.1,73.7,57.6,67.6,58.6,52.2,90,63,32,30.25,30.18,9,2,9,0.00
2013-8-24,96.1,74.2,59.8,69.8,60.8,52.2,80,65,42,30.31,30.21,10,2,10,0.00
2013-8-25,96.5,79.7,70.0,72.5,67.2,63.5,83,67,46,30.25,30.14,14,4,14,0.00
2013-8-26,97.6,81.9,71.6,75.9,69.9,64.6,82,68,49,30.20,30.02,12,4,12,0.00
2013-8-27,97.6,83.1,73.4,74.9,71.6,68.0,85,70,46,30.03,29.88,12,4,12,0.00
2013-8-28,103.7,79.7,69.5,74.9,69.4,63.4,89,73,38,30.11,29.92,8,2,8,0.00
2013-8-29,100.6,78.6,63.2,70.9,65.8,60.3,92,69,35,30.15,30.02,10,2,10,0.00
2013-8-30,98.1,80.0,69.7,77.0,69.6,61.9,89,72,45,30.03,29.85,10,3,10,0.00
2013-8-31,102.1,76.1,63.5,70.2,63.2,58.6,87,68,34,29.97,29.86,7,1,7,0.00
2013-9-1,91.1,73.1,63.9,72.2,63.0,55.9,94,73,36,29.92,29.80,10,3,10,0.00
2013-9-2,84.4,67.1,58.7,58.5,55.5,49.4,89,69,39,30.05,29.91,9,2,9,0.00